ContactaLinksHome
    
DADES METEOROLÒGIQUES DE LES ÚLTIMES 24 HORES
 

Taire  Temperatura de l'aire  (ºC)
HumitatR  Humitat relativa de l'aire (%)
Pluja  Litres de pluja per metre cuadrat caiguts en 10 minuts (l/m²)
VelVent  Velocitat mitjana del vent (m/s)
DirVent  Direcció del vent  (º)
RadSolar  Intensitat de Radiació solar (w/m²)
PressAtm  Pressió atmosfèrica (mb)
  ***Dades sense verificar
DataTaireHumitatRPlujaVelVentDirVentRadSolarPressAtm
28/02/2017 5:20:0012.6530,03.332801008
28/02/2017 5:10:0012.7530,03.633901008
28/02/2017 5:00:0012.7530,04.133001008
28/02/2017 4:50:0012.7540,03.432501008
28/02/2017 4:40:0012.8530,03.031301008
28/02/2017 4:30:0012.9530,03.331301008
28/02/2017 4:20:0012.6550,03.632301008
28/02/2017 4:10:0012.7550,03.432301008
28/02/2017 4:00:0012.8540,03.331401008
28/02/2017 3:50:0013.0540,03.633001007
28/02/2017 3:40:0013.2540,03.232201007
28/02/2017 3:30:0013.0550,03.132701007
28/02/2017 3:20:0013.1540,02.931901008
28/02/2017 3:10:0013.1550,03.432001008
28/02/2017 3:00:0013.0550,03.631901008
28/02/2017 2:50:0012.9560,03.332401008
28/02/2017 2:40:0012.8580,03.432201008
28/02/2017 2:30:0012.7590,03.832801008
28/02/2017 2:20:0012.8590,03.233001008
28/02/2017 2:10:0013.0590,02.932401008
28/02/2017 2:00:0013.1590,02.830801008
28/02/2017 1:50:0013.1600,03.431201008
28/02/2017 1:40:0013.2600,02.329401008
28/02/2017 1:30:0013.2610,02.530301009
28/02/2017 1:20:0013.0610,02.832001009
28/02/2017 1:10:0013.2610,03.031901009
28/02/2017 1:00:0013.3600,02.631001009
28/02/2017 0:50:0013.4600,02.727301009
28/02/2017 0:40:0013.4600,02.530101009
28/02/2017 0:30:0013.4600,02.026901009
28/02/2017 0:20:0013.3610,01.427901009
28/02/2017 0:10:0013.5600,01.330701009
28/02/2017 0:00:0014.2590,01.630201009
27/02/2017 23:50:0014.4540,02.024601009
27/02/2017 23:40:0014.6530,03.524001009
27/02/2017 23:30:0014.7520,05.124501009
27/02/2017 23:20:0014.9520,05.224301009
27/02/2017 23:10:0014.9530,05.725101009
27/02/2017 23:00:0014.6560,03.424601009
27/02/2017 22:50:0014.2570,02.626501009
27/02/2017 22:40:0014.1580,02.627601010
27/02/2017 22:30:0014.1590,02.928201010
27/02/2017 22:20:0013.9610,03.030001010
27/02/2017 22:10:0013.8620,02.828501010
27/02/2017 22:00:0014.3620,02.729001010
27/02/2017 21:50:0014.3580,02.829301010
27/02/2017 21:40:0014.4580,03.524601010
27/02/2017 21:30:0014.5580,05.224601010
27/02/2017 21:20:0014.4590,05.024201010
27/02/2017 21:10:0014.3610,04.724001010
27/02/2017 21:00:0014.2620,04.424401010
27/02/2017 20:50:0014.1640,03.823701010
27/02/2017 20:40:0014.1640,02.227901010
27/02/2017 20:30:0014.2640,02.928901010
27/02/2017 20:20:0014.2640,03.128601010
27/02/2017 20:10:0014.2650,03.325501010
27/02/2017 20:00:0014.3650,03.624601010
27/02/2017 19:50:0014.3670,03.525501010
27/02/2017 19:40:0014.2680,04.125201010
27/02/2017 19:30:0014.2690,03.725801010
27/02/2017 19:20:0014.3700,03.724501010
27/02/2017 19:10:0014.3700,04.424701010
27/02/2017 19:00:0014.3700,05.124401010
27/02/2017 18:50:0014.5700,05.624901010
27/02/2017 18:40:0014.5700,04.825001010
27/02/2017 18:30:0014.6700,05.624801010
27/02/2017 18:20:0014.5730,04.924801010
27/02/2017 18:10:0014.3730,05.222801010
27/02/2017 18:00:0014.4730,05.722601010
27/02/2017 17:50:0014.5730,05.421901010
27/02/2017 17:40:0014.6730,05.223741010
27/02/2017 17:30:0014.7720,05.2224151010
27/02/2017 17:20:0014.7720,05.3244321010
27/02/2017 17:10:0015.0710,06.5236541010
27/02/2017 17:00:0014.9710,05.3242881010
27/02/2017 16:50:0014.8730,05.62111181010
27/02/2017 16:40:0014.3790,06.52051441010
27/02/2017 16:30:0013.8790,07.92131711010
27/02/2017 16:20:0013.9790,08.32071971010
27/02/2017 16:10:0014.0790,09.02072301010
27/02/2017 16:00:0014.3780,09.12112581010
27/02/2017 15:50:0015.1740,08.12092841010
27/02/2017 15:40:0015.3690,07.62173171010
27/02/2017 15:30:0015.3680,07.32143421010
27/02/2017 15:20:0015.4680,06.52143721010
27/02/2017 15:10:0015.1750,07.52183941010
27/02/2017 15:00:0014.0810,09.02004181010
27/02/2017 14:50:0013.4820,010.02004371010
27/02/2017 14:40:0013.3820,010.42034571010
27/02/2017 14:30:0013.3830,010.32024741011
27/02/2017 14:20:0013.2820,09.82074991011
27/02/2017 14:10:0013.1820,09.62005191011
27/02/2017 14:00:0013.1820,09.11995401011
27/02/2017 13:50:0013.0820,09.21965601011
27/02/2017 13:40:0013.1810,09.31995461011
27/02/2017 13:30:0013.1800,09.42025831011
27/02/2017 13:20:0013.1800,09.12045931011
27/02/2017 13:10:0013.2800,09.12075881012
27/02/2017 13:00:0013.3790,08.92056141012
27/02/2017 12:50:0013.3780,08.62086101012
27/02/2017 12:40:0013.3780,08.42086011012
27/02/2017 12:30:0013.3780,08.32056261012
27/02/2017 12:20:0013.4780,08.22066341013
27/02/2017 12:10:0013.3780,08.12156381013
27/02/2017 12:00:0013.3790,08.52116431013
27/02/2017 11:50:0013.2790,08.02046321013
27/02/2017 11:40:0013.0800,07.22046301013
27/02/2017 11:30:0013.0790,07.71976301013
27/02/2017 11:20:0013.1780,07.21996181013
27/02/2017 11:10:0013.3780,07.11985341013
27/02/2017 11:00:0013.5770,06.61946431014
27/02/2017 10:50:0013.4760,06.41956251014
27/02/2017 10:40:0013.4760,05.71935921014
27/02/2017 10:30:0014.0760,04.41915581014
27/02/2017 10:20:0014.2690,03.01995501014
27/02/2017 10:10:0014.4640,01.22055331014
27/02/2017 10:00:0014.2650,01.53185111014
27/02/2017 9:50:0013.8660,02.13235041014
27/02/2017 9:40:0013.4670,02.63224821014
27/02/2017 9:30:0013.2680,02.53094471014
27/02/2017 9:20:0012.9680,03.33274241015
27/02/2017 9:10:0012.9680,02.83213971014
27/02/2017 9:00:0012.8690,02.93153571014
27/02/2017 8:40:0012.4700,03.13193121015
27/02/2017 8:30:0012.1710,04.03152511015
27/02/2017 8:20:0012.0720,0 212551015
27/02/2017 8:10:0011.8730,03.43312331015
27/02/2017 8:00:0011.6730,03.03111501015
27/02/2017 7:50:0011.6740,03.33211701015
27/02/2017 7:40:0011.6740,03.23121431015
27/02/2017 7:30:0011.5750,03.5313651015
27/02/2017 7:20:0011.5750,03.4316661015
27/02/2017 7:10:0011.4770,03.7318581015
27/02/2017 7:00:0011.2770,03.2319351015
27/02/2017 6:50:0011.3770,03.7321181015
27/02/2017 6:40:0011.4760,03.232181015
27/02/2017 6:30:0011.4760,02.432221015
27/02/2017 6:20:0011.6760,0 2101015
27/02/2017 6:10:0011.8740,02.431401015
27/02/2017 6:00:0011.9730,02.031101015
27/02/2017 5:50:0011.9720,01.428101015
27/02/2017 5:40:0012.0730,01.730401015
27/02/2017 5:30:0012.1730,01.230001015
27/02/2017 5:20:0012.1730,00.928901015

ÚLTIMES FOTOS WEBCAM
Imatges del Pont
ÚLTIMES DADES

28/02/2017  
6:20h Local  (5:20 GMT)
 
 Velocitat mitjana del Vent
   3,3 m/s
 Direcció del Vent
   328º
 Humitat Relativa
   53 %
 Temperatura Aparent
   12,6 ºC
 Pluja Acumulada
   0,0 l/m²
      
 Temperatura de l'aigua    N/A
 Alçada d'ona    N/A
 Direcció d'ona    N/A
 Velocitat del corrent    N/A
 Direcció del corrent    N/A